Tiempo cada hora Allaguvat

Hoy, 28 Julio, Miércoles

Tiempo Temperatura Precipitaciones Viento Presión Humedad
00:00 +16°C° 0 mm 1 mps 745 mmHg 80%
01:00 +15°C° 0 mm 1 mps 745 mmHg 84%
02:00 +14°C° 0 mm 1 mps 745 mmHg 86%
03:00 +14°C° 0 mm 1 mps 745 mmHg 87%
04:00 +13°C° 0 mm 1 mps 745 mmHg 90%
05:00 +15°C° 0 mm 1 mps 745 mmHg 85%
06:00 +16°C° 0 mm 2 mps 746 mmHg 80%
07:00 +17°C° 0 mm 2 mps 746 mmHg 76%
08:00 +18°C° 0 mm 3 mps 746 mmHg 66%
09:00 +20°C° 0 mm 4 mps 746 mmHg 56%
10:00 +22°C° 0 mm 4 mps 746 mmHg 46%
11:00 +23°C° 0 mm 5 mps 746 mmHg 41%
12:00 +23°C° 0 mm 5 mps 745 mmHg 36%
13:00 +25°C° 0 mm 5 mps 745 mmHg 31%
14:00 +25°C° 0 mm 5 mps 745 mmHg 29%
15:00 +25°C° 0 mm 5 mps 745 mmHg 28%
16:00 +25°C° 0 mm 5 mps 745 mmHg 26%
17:00 +25°C° 0 mm 5 mps 745 mmHg 28%
18:00 +23°C° 0 mm 4 mps 745 mmHg 30%
19:00 +22°C° 0 mm 4 mps 746 mmHg 31%
20:00 +19°C° 0 mm 3 mps 746 mmHg 38%
21:00 +17°C° 0 mm 3 mps 746 mmHg 44%
22:00 +14°C° 0 mm 2 mps 746 mmHg 50%
23:00 +14°C° 0 mm 1 mps 746 mmHg 55%

Mañana, 29 Julio, Jueves

Tiempo Temperatura Precipitaciones Viento Presión Humedad
00:00 +13°C° 0 mm 1 mps 746 mmHg 59%
01:00 +11°C° 0 mm 0 mps 747 mmHg 64%
02:00 +12°C° 0 mm 1 mps 747 mmHg 64%
03:00 +11°C° 0 mm 1 mps 747 mmHg 65%
04:00 +11°C° 0 mm 1 mps 747 mmHg 65%
05:00 +13°C° 0 mm 1 mps 747 mmHg 59%
06:00 +15°C° 0 mm 1 mps 747 mmHg 52%
07:00 +17°C° 0 mm 2 mps 747 mmHg 46%
08:00 +19°C° 0 mm 2 mps 747 mmHg 40%
09:00 +21°C° 0 mm 2 mps 747 mmHg 34%
10:00 +25°C° 0 mm 3 mps 746 mmHg 28%
11:00 +26°C° 0 mm 3 mps 746 mmHg 25%
12:00 +27°C° 0 mm 3 mps 746 mmHg 23%
13:00 +28°C° 0 mm 4 mps 745 mmHg 20%
14:00 +29°C° 0 mm 4 mps 745 mmHg 19%
15:00 +29°C° 0 mm 4 mps 745 mmHg 19%
16:00 +29°C° 0 mm 5 mps 744 mmHg 18%
17:00 +28°C° 0 mm 4 mps 744 mmHg 21%
18:00 +27°C° 0 mm 3 mps 744 mmHg 24%
19:00 +26°C° 0 mm 2 mps 744 mmHg 27%
20:00 +24°C° 0 mm 2 mps 743 mmHg 28%
21:00 +23°C° 0 mm 2 mps 743 mmHg 30%
22:00 +20°C° 0 mm 2 mps 743 mmHg 32%
23:00 +20°C° 0 mm 2 mps 743 mmHg 36%

Pasado mañana, 30 Julio, Viernes

Tiempo Temperatura Precipitaciones Viento Presión Humedad
00:00 +20°C° 0 mm 3 mps 743 mmHg 40%
01:00 +20°C° 0 mm 3 mps 743 mmHg 44%
02:00 +19°C° 0.3 mm 3 mps 742 mmHg 58%
03:00 +18°C° 0.3 mm 3 mps 742 mmHg 72%
04:00 +17°C° 0.3 mm 2 mps 742 mmHg 86%
05:00 +17°C° 0.4 mm 3 mps 742 mmHg 82%
06:00 +18°C° 0.4 mm 4 mps 741 mmHg 77%
07:00 +17°C° 0.4 mm 5 mps 741 mmHg 73%
08:00 +21°C° 0.2 mm 5 mps 740 mmHg 64%
09:00 +24°C° 0.2 mm 6 mps 740 mmHg 55%
10:00 +28°C° 0.2 mm 6 mps 740 mmHg 46%
11:00 +28°C° 0 mm 6 mps 740 mmHg 46%
12:00 +29°C° 0 mm 6 mps 740 mmHg 45%
13:00 +29°C° 0 mm 7 mps 740 mmHg 45%
14:00 +29°C° 0 mm 6 mps 740 mmHg 47%
15:00 +28°C° 0 mm 6 mps 740 mmHg 48%
16:00 +28°C° 0 mm 6 mps 741 mmHg 49%
17:00 +27°C° 0 mm 5 mps 741 mmHg 52%
18:00 +27°C° 0 mm 5 mps 741 mmHg 54%
19:00 +26°C° 0 mm 4 mps 742 mmHg 56%
20:00 +23°C° 0 mm 4 mps 742 mmHg 63%
21:00 +22°C° 0 mm 3 mps 742 mmHg 69%
22:00 +20°C° 0 mm 2 mps 742 mmHg 75%
23:00 +19°C° 0 mm 2 mps 742 mmHg 77%

31 Julio, Sábado

Tiempo Temperatura Precipitaciones Viento Presión Humedad
00:00 +19°C° 0 mm 2 mps 742 mmHg 79%
01:00 +20°C° 0 mm 1 mps 743 mmHg 81%
02:00 +18°C° 0 mm 2 mps 743 mmHg 83%
03:00 +18°C° 0 mm 2 mps 743 mmHg 84%
04:00 +18°C° 0 mm 2 mps 743 mmHg 85%
05:00 +19°C° 0 mm 2 mps 743 mmHg 77%
06:00 +21°C° 0 mm 3 mps 743 mmHg 70%
07:00 +24°C° 0 mm 3 mps 744 mmHg 63%
08:00 +26°C° 0 mm 3 mps 743 mmHg 55%
09:00 +28°C° 0 mm 3 mps 743 mmHg 48%
10:00 +30°C° 0 mm 3 mps 743 mmHg 40%
11:00 +31°C° 0 mm 3 mps 743 mmHg 38%
12:00 +32°C° 0 mm 4 mps 742 mmHg 36%
13:00 +33°C° 0 mm 4 mps 742 mmHg 34%
14:00 +31°C° 0 mm 3 mps 742 mmHg 40%
15:00 +30°C° 0 mm 3 mps 742 mmHg 45%
16:00 +28°C° 0 mm 2 mps 742 mmHg 51%
17:00 +28°C° 0.1 mm 3 mps 741 mmHg 53%
18:00 +28°C° 0.1 mm 3 mps 741 mmHg 55%
19:00 +27°C° 0.1 mm 3 mps 741 mmHg 57%
20:00 +25°C° 0.2 mm 3 mps 741 mmHg 68%
21:00 +22°C° 0.2 mm 3 mps 741 mmHg 79%
22:00 +20°C° 0.2 mm 3 mps 742 mmHg 90%
23:00 +20°C° 0 mm 3 mps 742 mmHg 90%

1 Agosto, Domingo

Tiempo Temperatura Precipitaciones Viento Presión Humedad
00:00 +20°C° 0 mm 2 mps 742 mmHg 89%
01:00 +20°C° 0 mm 2 mps 742 mmHg 88%
02:00 +19°C° 0 mm 2 mps 742 mmHg 90%
03:00 +19°C° 0 mm 2 mps 742 mmHg 91%
04:00 +19°C° 0 mm 1 mps 742 mmHg 92%
05:00 +20°C° 0 mm 1 mps 743 mmHg 89%
06:00 +21°C° 0 mm 1 mps 743 mmHg 86%
07:00 +20°C° 0 mm 0 mps 743 mmHg 83%
08:00 +24°C° 0 mm 1 mps 744 mmHg 70%
09:00 +27°C° 0 mm 1 mps 744 mmHg 57%
10:00 +29°C° 0 mm 2 mps 744 mmHg 44%
11:00 +30°C° 0 mm 3 mps 744 mmHg 38%
12:00 +33°C° 0 mm 4 mps 744 mmHg 32%
13:00 +34°C° 0 mm 4 mps 744 mmHg 27%
14:00 +34°C° 0 mm 4 mps 744 mmHg 26%
15:00 +34°C° 0 mm 4 mps 744 mmHg 25%
16:00 +34°C° 0 mm 4 mps 744 mmHg 25%
17:00 +33°C° 0 mm 3 mps 744 mmHg 28%
18:00 +31°C° 0 mm 2 mps 744 mmHg 30%
19:00 +30°C° 0 mm 1 mps 744 mmHg 33%
20:00 +28°C° 0 mm 1 mps 744 mmHg 37%
21:00 +26°C° 0 mm 1 mps 744 mmHg 41%
22:00 +24°C° 0 mm 1 mps 745 mmHg 45%
23:00 +23°C° 0 mm 1 mps 745 mmHg 47%

2 Agosto, Lunes

Tiempo Temperatura Precipitaciones Viento Presión Humedad
00:00 +23°C° 0 mm 2 mps 745 mmHg 50%
01:00 +21°C° 0 mm 2 mps 745 mmHg 52%
02:00 +20°C° 0 mm 2 mps 745 mmHg 53%
03:00 +20°C° 0 mm 2 mps 745 mmHg 55%
04:00 +20°C° 0 mm 2 mps 745 mmHg 56%
05:00 +21°C° 0 mm 2 mps 746 mmHg 52%
06:00 +24°C° 0 mm 3 mps 746 mmHg 47%
07:00 +26°C° 0 mm 3 mps 746 mmHg 43%
08:00 +28°C° 0 mm 3 mps 746 mmHg 37%
09:00 +32°C° 0 mm 4 mps 746 mmHg 31%
10:00 +35°C° 0 mm 4 mps 746 mmHg 26%
11:00 +36°C° 0 mm 4 mps 746 mmHg 23%
12:00 +37°C° 0 mm 4 mps 746 mmHg 21%
13:00 +38°C° 0 mm 4 mps 745 mmHg 19%
14:00 +38°C° 0 mm 4 mps 745 mmHg 19%
15:00 +38°C° 0 mm 4 mps 745 mmHg 19%
16:00 +40°C° 0 mm 4 mps 745 mmHg 19%
17:00 +37°C° 0 mm 3 mps 745 mmHg 22%
18:00 +36°C° 0 mm 3 mps 745 mmHg 25%
19:00 +34°C° 0 mm 2 mps 745 mmHg 28%
20:00 +31°C° 0 mm 2 mps 745 mmHg 33%
21:00 +30°C° 0 mm 1 mps 745 mmHg 37%
22:00 +26°C° 0 mm 0 mps 745 mmHg 42%
23:00 +25°C° 0.1 mm 0 mps 745 mmHg 44%
Mostrar más

Necesitamos Su Consentimiento

Meteoprog y nuestros Proveedores de Servicios pueden almacenar y acceder a sus datos personales como cookies, identificadores de dispositivo u otras tecnologías similares de su dispositivo y procesar dichos datos para personalizar contenido y anuncios, además de ofrecer funciones de redes sociales y analizar el tráfico.

  • Almacenar y/o acceder a información en su dispositivo

    Se puede almacenar o acceder a cookies, identificadores de dispositivo u otra información de su dispositivo para los fines anteriormente indicados.

  • Anuncios y contenido personalizados, medición de anuncios y contenido, percepciones del público, y desarrollo de productos

    Los anuncios y el contenido pueden personalizarse en base a su perfil. Se pueden añadir más datos para personalizar mejor los anuncios y contenidos. Se puede medir el rendimiento de los anuncios y contenidos. Se puede obtener la percepción sobre el público que ha visto los anuncios y contenidos. Dichos datos pueden usarse para desarrollar o mejorar la experiencia del usuario, sistemas y software.

Al hacer clic en ‘Estoy De Acuerdo’ usted permitirá el uso de las cookies, identificadores de dispositivo, balizas web u otras tecnologías similares indicadas. Su configuración puede cambiarse desde el navegador de su dispositivo.

Para ciertos fines, los intereses legítimos pueden ser considerados por encima del consentimiento. Puede leer más sobre ello en nuestra Política de Privacidad y Cookies.